FW4808 Weather Reports


time (UTC)temp
F
wind
direction
speed
knots
gust
knots
rain 1hr
in
rain 24hr
in
rain mn
in
humidity
%
barometer
mb
20260505170503 83 192 1.7 10.4 0.00 0.00 0.00 33 1010.2
20260505170217 84 190 1.7 10.4 0.00 0.00 0.00 34 1010.3
20260505165504 84 186 1.7 8.7 0.00 0.00 0.00 34 1010.3
20260505165217 84 185 1.7 8.7 0.00 0.00 0.00 32 1010.4
20260505164503 84 205 0.9 8.7 0.00 0.00 0.00 32 1010.6
20260505164003 85 225 0.9 7.0 0.00 0.00 0.00 32 1010.7
20260505163718 84 224 0.9 5.2 0.00 0.00 0.00 33 1010.7
20260505163004 84 211 0.9 5.2 0.00 0.00 0.00 33 1010.8
20260505162718 84 215 0.9 5.2 0.00 0.00 0.00 33 1010.8
20260505162219 84 223 1.7 11.3 0.00 0.00 0.00 33 1010.8
20260505161718 84 227 2.6 13.0 0.00 0.00 0.00 32 1010.9
20260505161003 84 225 1.7 8.7 0.00 0.00 0.00 32 1010.9
20260505160503 84 243 1.7 8.7 0.00 0.00 0.00 33 1010.8
20260505153003 83 251 1.7 8.7 0.00 0.00 0.00 33 1011.1
20260505152503 83 237 0.9 8.7 0.00 0.00 0.00 33 1011.0
20260505152003 83 220 0.9 7.8 0.00 0.00 0.00 33 1010.9
20260505151503 83 214 1.7 9.6 0.00 0.00 0.00 33 1010.9
20260505151218 83 221 1.7 9.6 0.00 0.00 0.00 33 1011.0
20260505150503 83 235 0.9 7.0 0.00 0.00 0.00 35 1011.0
20260505140503 76 257 0.9 7.0 0.00 0.00 0.00 42 1011.2
20260505124503 65 211 0.0 0.9 0.00 0.00 0.00 59 1011.9
20260505124003 64 0 0.0 0.0 0.00 0.00 0.00 59 1011.8
20260505123503 64 176 0.0 0.9 0.00 0.00 0.00 60 1011.8
20260505123003 63 176 0.0 0.9 0.00 0.00 0.00 60 1011.8
20260505122503 63 0 0.0 0.0 0.00 0.00 0.00 61 1011.9
20260505122004 62 199 0.0 0.9 0.00 0.00 0.00 61 1012.0
20260505121504 62 182 0.0 2.6 0.00 0.00 0.00 62 1011.9
20260505121003 62 175 0.0 2.6 0.00 0.00 0.00 63 1011.9
20260505120503 61 172 0.0 1.7 0.00 0.00 0.00 63 1011.8
20260505120004 61 178 0.0 0.9 0.00 0.00 0.00 64 1011.7
20260505115503 60 183 0.0 2.6 0.00 0.00 0.00 65 1011.7
20260505115003 60 183 0.0 2.6 0.00 0.00 0.00 64 1011.6
20260505114504 60 182 0.9 5.2 0.00 0.00 0.00 65 1011.5
20260505114004 60 182 0.0 5.2 0.00 0.00 0.00 66 1011.5
20260505113504 59 177 0.0 1.7 0.00 0.00 0.00 67 1011.4
20260505113003 59 175 0.0 1.7 0.00 0.00 0.00 67 1011.4
20260505112503 59 175 0.0 2.6 0.00 0.00 0.00 67 1011.3
20260505112003 59 182 0.0 2.6 0.00 0.00 0.00 67 1011.4
20260505111503 59 186 0.0 7.8 0.00 0.00 0.00 68 1011.3
20260505111003 59 185 0.0 7.8 0.00 0.00 0.00 68 1011.2
20260505110503 58 183 0.0 3.5 0.00 0.00 0.00 69 1011.1
20260505102003 57 0 0.0 0.0 0.00 0.00 0.00 70 1010.6
20260505101718 57 0 0.0 0.0 0.00 0.00 0.00 70 1010.6
20260505101003 58 0 0.0 0.0 0.00 0.00 0.00 70 1010.6
20260505100503 58 0 0.0 0.0 0.00 0.00 0.00 70 1010.6
20260505100218 58 0 0.0 0.0 0.00 0.00 0.00 69 1010.5
20260505095503 58 183 0.0 0.9 0.00 0.00 0.00 69 1010.5
20260505095003 58 183 0.0 1.7 0.00 0.00 0.00 69 1010.4
20260505094504 58 183 0.0 1.7 0.00 0.00 0.00 69 1010.5
20260505094003 58 165 0.0 1.7 0.00 0.00 0.00 69 1010.5
20260505093503 58 165 0.0 1.7 0.00 0.00 0.00 69 1010.4
20260505093004 58 0 0.0 0.0 0.00 0.00 0.00 68 1010.5
20260505092503 59 0 0.0 0.0 0.00 0.00 0.00 68 1010.4
20260505092003 59 0 0.0 0.0 0.00 0.00 0.00 68 1010.4
20260505091503 59 185 0.0 1.7 0.00 0.00 0.00 68 1010.3
20260505091218 59 185 0.0 1.7 0.00 0.00 0.00 68 1010.2
20260505090503 59 181 0.0 4.3 0.00 0.00 0.00 68 1010.2
20260505090004 59 184 0.9 7.8 0.00 0.00 0.00 68 1010.2
20260505085503 59 184 0.9 7.8 0.00 0.00 0.00 67 1010.3
20260505085003 59 184 0.0 3.5 0.00 0.00 0.00 67 1010.3
20260505084503 59 177 0.0 0.9 0.00 0.00 0.00 67 1010.1
20260505084003 60 178 0.0 1.7 0.00 0.00 0.00 67 1010.2
20260505083503 60 188 0.0 2.6 0.00 0.00 0.00 67 1010.2
20260505083003 60 192 0.0 2.6 0.00 0.00 0.00 66 1010.2
20260505082503 60 177 0.0 2.6 0.00 0.00 0.00 66 1010.2
20260505082003 60 179 0.0 3.5 0.00 0.00 0.00 66 1010.2
20260505081503 60 181 0.0 3.5 0.00 0.00 0.00 66 1010.3
20260505081003 60 0 0.0 0.0 0.00 0.00 0.00 65 1010.2
20260505080503 60 173 0.0 2.6 0.00 0.00 0.00 65 1010.1
20260505080003 61 173 0.0 2.6 0.00 0.00 0.00 64 1010.1
20260505075504 61 0 0.0 0.0 0.00 0.00 0.00 64 1010.0
20260505075218 61 0 0.0 0.0 0.00 0.00 0.00 64 1010.0
20260505074503 61 0 0.0 0.0 0.00 0.00 0.00 64 1010.0
20260505074003 61 165 0.0 1.7 0.00 0.00 0.00 64 1010.0
20260505073716 61 165 0.0 1.7 0.00 0.00 0.00 64 1010.0
20260505073003 61 177 0.0 3.5 0.00 0.00 0.00 63 1009.8
20260505072716 61 177 0.0 3.5 0.00 0.00 0.00 63 1009.8
20260505072003 61 0 0.0 0.0 0.00 0.00 0.00 63 1009.9
20260505071504 62 0 0.0 0.0 0.00 0.00 0.00 63 1009.8
20260505071003 62 0 0.0 0.0 0.00 0.00 0.00 62 1009.9
20260505070503 62 200 0.0 1.7 0.00 0.00 0.00 62 1009.9
20260505070217 62 184 0.0 4.3 0.00 0.00 0.00 62 1009.9
20260505065503 62 180 0.0 4.3 0.00 0.00 0.00 62 1009.9
20260505065003 62 175 0.0 5.2 0.00 0.00 0.00 62 1010.0
20260505064503 62 187 0.0 5.2 0.00 0.00 0.00 62 1009.9
20260505064003 62 185 0.0 5.2 0.00 0.00 0.00 62 1009.9
20260505063718 62 182 0.0 5.2 0.00 0.00 0.00 62 1010.0
20260505063217 62 181 0.0 5.2 0.00 0.00 0.00 62 1010.0
20260505062503 62 0 0.0 0.0 0.00 0.00 0.00 62 1010.0
20260505062003 62 179 0.0 3.5 0.00 0.00 0.00 62 1010.0
20260505061503 62 179 0.0 3.5 0.00 0.00 0.00 61 1010.0
20260505061003 62 180 0.0 2.6 0.00 0.00 0.00 61 1010.0
20260505060503 62 0 0.0 0.0 0.00 0.00 0.00 61 1010.1
20260505060004 62 0 0.0 0.0 0.00 0.00 0.00 61 1010.1
20260505055503 62 0 0.0 0.0 0.00 0.00 0.00 61 1010.1
20260505055004 62 0 0.0 0.0 0.00 0.00 0.00 60 1010.1
20260505054503 63 0 0.0 0.0 0.00 0.00 0.00 60 1010.1
20260505054217 63 0 0.0 0.0 0.00 0.00 0.00 60 1010.1
20260505053503 63 0 0.0 0.0 0.00 0.00 0.00 60 1010.1
20260505053217 63 0 0.0 0.0 0.00 0.00 0.00 59 1010.2
20260505052503 63 176 0.0 0.9 0.00 0.00 0.00 59 1010.2
20260505052217 63 176 0.0 0.9 0.00 0.00 0.00 59 1010.2
20260505051503 63 171 0.0 1.7 0.00 0.00 0.00 59 1010.2
20260505051003 63 171 0.0 1.7 0.00 0.00 0.00 59 1010.2
20260505050503 63 0 0.0 0.0 0.00 0.00 0.00 59 1010.2
20260505041717 64 0 0.0 0.0 0.00 0.00 0.00 56 1009.9
20260505041003 64 174 0.0 1.7 0.00 0.00 0.00 56 1010.0
20260505040717 64 174 0.0 1.7 0.00 0.00 0.00 56 1009.9
20260505040218 63 174 0.0 1.7 0.00 0.00 0.00 56 1009.9
20260505035503 63 165 0.0 5.2 0.00 0.00 0.00 56 1009.9
20260505035003 63 164 0.0 5.2 0.00 0.00 0.00 56 1009.8
20260505034503 63 194 0.0 1.7 0.00 0.00 0.00 56 1009.9
20260505034003 63 193 0.0 1.7 0.00 0.00 0.00 56 1010.0
20260505033717 63 195 0.0 2.6 0.00 0.00 0.00 55 1009.9
20260505033003 63 192 0.0 2.6 0.00 0.00 0.00 55 1009.9
20260505032503 63 188 0.0 0.9 0.00 0.00 0.00 55 1009.8
20260505032003 63 176 0.0 0.9 0.00 0.00 0.00 55 1009.8
20260505031503 63 169 0.0 2.6 0.00 0.00 0.00 55 1009.8
20260505031004 64 179 0.0 2.6 0.00 0.00 0.00 54 1009.7
20260505030503 64 182 0.0 2.6 0.00 0.00 0.00 54 1009.8
20260505030004 64 165 0.0 2.6 0.00 0.00 0.00 53 1009.8
20260505025503 64 165 0.0 2.6 0.00 0.00 0.00 53 1009.9
20260505025218 64 158 0.0 2.6 0.00 0.00 0.00 53 1010.0
20260505024503 64 0 0.0 0.0 0.00 0.00 0.00 52 1010.0
20260505024004 65 0 0.0 0.0 0.00 0.00 0.00 52 1010.0
20260505023503 65 0 0.0 0.0 0.00 0.00 0.00 51 1010.0
20260505023003 65 0 0.0 0.0 0.00 0.00 0.00 51 1010.0
20260505022503 66 0 0.0 0.0 0.00 0.00 0.00 51 1009.9
20260505022003 66 185 0.0 2.6 0.00 0.00 0.00 50 1009.9
20260505021503 66 185 0.0 2.6 0.00 0.00 0.00 50 1010.0
20260505021217 66 185 0.0 2.6 0.00 0.00 0.00 50 1009.9
20260505020503 66 179 0.0 2.6 0.00 0.00 0.00 49 1009.8
20260505020004 66 179 0.0 2.6 0.00 0.00 0.00 49 1009.8
20260505015503 66 179 0.0 2.6 0.00 0.00 0.00 49 1009.7
20260505015004 66 177 0.0 2.6 0.00 0.00 0.00 48 1009.9
20260505014718 66 184 0.0 3.5 0.00 0.00 0.00 48 1009.9
20260505014004 66 189 0.0 3.5 0.00 0.00 0.00 48 1009.9
20260505013503 66 171 0.0 3.5 0.00 0.00 0.00 48 1009.9
20260505013003 66 172 0.0 3.5 0.00 0.00 0.00 48 1009.8
20260505012503 66 183 0.0 5.2 0.00 0.00 0.00 48 1009.7
20260505012003 66 185 0.9 7.0 0.00 0.00 0.00 47 1009.5
20260505011718 66 182 0.0 7.0 0.00 0.00 0.00 47 1009.4
20260505011003 67 174 0.0 3.5 0.00 0.00 0.00 47 1009.4
20260505010503 67 179 0.0 3.5 0.00 0.00 0.00 46 1009.3
20260505010004 67 182 0.0 3.5 0.00 0.00 0.00 46 1009.3
20260505005503 67 180 0.0 3.5 0.00 0.00 0.00 45 1009.2
20260505005004 68 165 0.0 5.2 0.00 0.00 0.00 45 1009.2
20260505004503 68 174 0.0 5.2 0.00 0.00 0.00 44 1009.2
20260505004004 68 183 0.0 2.6 0.00 0.00 0.00 44 1009.3
20260505003503 68 171 0.0 1.7 0.00 0.00 0.00 44 1009.2
20260505003003 68 177 0.0 1.7 0.00 0.00 0.00 43 1009.2
20260505002503 69 181 0.0 1.7 0.00 0.00 0.00 43 1009.2
20260505002003 69 190 0.0 2.6 0.00 0.00 0.00 42 1009.2
20260505001718 69 187 0.0 6.1 0.00 0.00 0.00 42 1009.2
20260505001003 69 180 0.0 6.1 0.00 0.00 0.00 42 1009.1
20260505000718 69 169 0.0 3.5 0.00 0.00 0.00 41 1009.1
20260505000003 70 177 0.0 3.5 0.00 0.00 0.00 40 1009.1
20260504235503 70 175 0.0 3.5 0.00 0.00 0.00 39 1009.0
20260504235004 71 176 0.0 4.3 0.00 0.00 0.00 39 1008.9
20260504234503 71 177 0.0 4.3 0.00 0.00 0.00 38 1008.9
20260504234003 71 174 0.9 7.0 0.00 0.00 0.00 38 1008.8
20260504233504 72 177 0.9 7.0 0.00 0.00 0.00 37 1008.8
20260504233003 72 173 0.9 9.6 0.00 0.00 0.00 37 1008.8
20260504232504 72 175 0.9 9.6 0.00 0.00 0.00 36 1008.7
20260504232003 72 183 0.9 7.8 0.00 0.00 0.00 36 1008.8
20260504231503 73 185 1.7 8.7 0.00 0.00 0.00 36 1008.9
20260504231003 73 186 0.9 8.7 0.00 0.00 0.00 35 1008.9
20260504230503 73 184 0.9 7.0 0.00 0.00 0.00 36 1008.8
20260504230004 73 182 1.7 13.0 0.00 0.00 0.00 35 1008.9
20260504225503 74 178 2.6 13.0 0.00 0.00 0.00 35 1008.8
20260504225218 74 180 1.7 13.0 0.00 0.00 0.00 35 1008.9
20260504224503 74 183 0.9 6.1 0.00 0.00 0.00 35 1008.9
20260504224004 74 178 0.9 8.7 0.00 0.00 0.00 34 1008.9
20260504223503 74 178 0.9 8.7 0.00 0.00 0.00 34 1008.8
20260504223004 74 185 0.9 4.3 0.00 0.00 0.00 34 1008.9
20260504222717 74 198 0.9 5.2 0.00 0.00 0.00 34 1008.9
20260504222218 74 188 0.9 10.4 0.00 0.00 0.00 34 1008.9
20260504221503 74 181 0.9 8.7 0.00 0.00 0.00 34 1008.9
20260504221004 74 182 1.7 10.4 0.00 0.00 0.00 34 1008.9
20260504220503 74 183 1.7 10.4 0.00 0.00 0.00 34 1009.0
20260504220004 74 182 0.9 7.8 0.00 0.00 0.00 35 1009.0
20260504215503 74 180 1.7 7.8 0.00 0.00 0.00 34 1009.0
20260504215003 74 183 1.7 11.3 0.00 0.00 0.00 34 1009.0
20260504214504 74 184 1.7 11.3 0.00 0.00 0.00 34 1008.9
20260504214003 74 184 1.7 8.7 0.00 0.00 0.00 34 1008.9
20260504213503 74 182 2.6 10.4 0.00 0.00 0.00 35 1008.9
20260504213003 74 183 2.6 10.4 0.00 0.00 0.00 35 1008.9
20260504212503 74 190 1.7 10.4 0.00 0.00 0.00 33 1009.0
20260504212003 74 191 0.9 7.8 0.00 0.00 0.00 35 1009.1
20260504211503 74 184 0.9 6.1 0.00 0.00 0.00 34 1009.1
20260504211003 74 186 0.9 7.0 0.00 0.00 0.00 36 1008.9
20260504210504 74 185 1.7 7.0 0.00 0.00 0.00 35 1008.9
20260504210004 74 183 1.7 7.0 0.00 0.00 0.00 34 1009.1
20260504205503 74 193 0.9 6.1 0.00 0.00 0.00 34 1009.1
20260504205003 74 194 0.9 6.1 0.00 0.00 0.00 35 1009.2
20260504204717 74 190 0.9 7.8 0.00 0.00 0.00 35 1009.1
20260504204004 74 196 0.9 8.7 0.00 0.00 0.00 34 1009.1
20260504203503 74 196 0.9 9.6 0.00 0.00 0.00 35 1009.1
20260504203003 74 189 1.7 9.6 0.00 0.00 0.00 34 1009.2
20260504202503 74 193 0.9 9.6 0.00 0.00 0.00 34 1009.3
20260504202217 74 218 0.0 4.3 0.00 0.00 0.00 35 1009.3
20260504201504 74 192 0.9 7.0 0.00 0.00 0.00 36 1009.5
20260504201003 74 195 0.9 7.8 0.00 0.00 0.00 35 1009.5
20260504200503 74 215 0.9 7.8 0.00 0.00 0.00 35 1009.5
20260504200003 74 202 0.9 6.1 0.00 0.00 0.00 35 1009.7
20260504195503 74 193 0.9 7.0 0.00 0.00 0.00 35 1009.7
20260504195003 74 194 1.7 8.7 0.00 0.00 0.00 35 1009.8
20260504194503 73 204 1.7 8.7 0.00 0.00 0.00 35 1009.9
20260504194003 73 213 0.9 7.8 0.00 0.00 0.00 35 1010.0
20260504193503 73 185 0.9 7.8 0.00 0.00 0.00 35 1010.0
20260504193003 73 194 0.9 7.8 0.00 0.00 0.00 35 1010.1
20260504192503 73 204 0.9 7.0 0.00 0.00 0.00 35 1010.3
20260504192003 73 180 0.9 7.8 0.00 0.00 0.00 35 1010.4
20260504191503 73 173 1.7 7.8 0.00 0.00 0.00 37 1010.5
20260504191003 73 193 1.7 7.8 0.00 0.00 0.00 35 1010.5
20260504190718 73 220 0.9 7.0 0.00 0.00 0.00 34 1010.5
20260504190003 73 218 0.9 7.8 0.00 0.00 0.00 34 1010.7
20260504185718 73 209 0.9 7.8 0.00 0.00 0.00 34 1010.8
20260504185217 73 175 0.0 5.2 0.00 0.00 0.00 34 1010.7
20260504184503 73 222 0.9 10.4 0.00 0.00 0.00 34 1011.0
20260504184003 72 196 0.9 10.4 0.00 0.00 0.00 35 1011.1
20260504183503 73 183 0.9 10.4 0.00 0.00 0.00 33 1011.1
20260504183004 73 210 0.0 2.6 0.00 0.00 0.00 34 1011.2
20260504182503 74 245 0.9 6.1 0.00 0.00 0.00 33 1011.3
20260504182219 74 241 0.9 6.1 0.00 0.00 0.00 33 1011.3
20260504181718 74 211 0.9 8.7 0.00 0.00 0.00 33 1011.3
20260504181218 74 198 0.9 13.9 0.00 0.00 0.00 34 1011.4
20260504180503 74 248 0.9 8.7 0.00 0.00 0.00 33 1011.4
20260504180004 74 226 0.9 6.1 0.00 0.00 0.00 33 1011.4
20260504175717 73 207 1.7 10.4 0.00 0.00 0.00 34 1011.5
20260504175003 73 202 1.7 10.4 0.00 0.00 0.00 33 1011.5
20260504174503 73 182 0.9 9.6 0.00 0.00 0.00 34 1011.4
20260504174003 73 171 1.7 9.6 0.00 0.00 0.00 33 1011.5
20260504173503 74 177 1.7 7.0 0.00 0.00 0.00 32 1011.7
20260504173218 74 180 0.9 7.0 0.00 0.00 0.00 33 1011.8
20260504172504 75 225 0.0 4.3 0.00 0.00 0.00 33 1011.7
20260504172003 75 251 0.9 7.8 0.00 0.00 0.00 33 1011.7
20260504171503 75 254 0.9 7.8 0.00 0.00 0.00 32 1011.8
20260504171003 74 260 0.9 6.1 0.00 0.00 0.00 33 1011.9